This is the latest recevied weather packets stored in our database for station/object IW4DZV-13. If no packets are shown the sender has not sent any weather packets the latest 1 day(s).
| Time | Temp. | Humidity | Pressure | Rain* | Wind** | Luminosity | Snow |
|---|---|---|---|---|---|---|---|
| 1777970730 | 15° C | 87% | 1013.1 hPa | 4.06 mm | 0 m/s | 63 W/m² | - |
| 1777969832 | 14.44° C | 86% | 1013 hPa | 4.06 mm | 0 m/s | 193 W/m² | - |
| 1777968923 | 14.44° C | 88% | 1012.9 hPa | 4.06 mm | 0 m/s | 229 W/m² | - |
| 1777968018 | 13.89° C | 87% | 1012.7 hPa | 4.06 mm | 0 m/s | 169 W/m² | - |
| 1777967115 | 13.89° C | 87% | 1012.9 hPa | 4.06 mm | 0 m/s | 146 W/m² | - |
| 1777966212 | 13.89° C | 85% | 1013.1 hPa | 3.3 mm | 0 m/s | 56 W/m² | - |
| 1777965322 | 14.44° C | 83% | 1013.1 hPa | 2.03 mm | 0 m/s | 21 W/m² | - |
| 1777964407 | 15° C | 79% | 1013.2 hPa | 1.02 mm | 0 m/s | 19 W/m² | - |
| 1777963504 | 15.56° C | 74% | 1013 hPa | 0 mm | 0 m/s | 21 W/m² | - |
| 1777962602 | 15.56° C | 71% | 1013 hPa | 0 mm | 0 m/s | 47 W/m² | - |
| 1777961705 | 15.56° C | 71% | 1012.8 hPa | 0 mm | 0 m/s | 102 W/m² | - |
| 1777960859 | 15.56° C | 71% | 1012.7 hPa | 0 mm | 0 m/s | 74 W/m² | - |
| 1777959974 | 15° C | 70% | 1012.5 hPa | 0 mm | 0.45 m/s, 360° | 47 W/m² | - |
| 1777959056 | 15° C | 70% | 1012.4 hPa | 0 mm | 0.45 m/s, 360° | 32 W/m² | - |
| 1777958158 | 15.56° C | 70% | 1012.2 hPa | 0 mm | 0 m/s | 25 W/m² | - |
| 1777957254 | 15.56° C | 68% | 1012.3 hPa | 0 mm | 0 m/s | 39 W/m² | - |
| 1777956367 | 15° C | 69% | 1012.2 hPa | 0 mm | 0 m/s | 11 W/m² | - |
| 1777955450 | 15.56° C | 69% | 1012.4 hPa | 0 mm | 0 m/s | 7 W/m² | - |
| 1777954549 | 15.56° C | 67% | 1012.3 hPa | 0 mm | 0 m/s | 0 W/m² | - |
| 1777953648 | 15.56° C | 68% | 1012.2 hPa | 0 mm | 0 m/s | 0 W/m² | - |
| 1777952747 | 15.56° C | 66% | 1012.3 hPa | 0 mm | 0 m/s | 0 W/m² | - |
| 1777951851 | 15.56° C | 67% | 1012.2 hPa | 0 mm | 0 m/s | 0 W/m² | - |
| 1777950944 | 16.11° C | 65% | 1012.4 hPa | 0 mm | 0 m/s | 0 W/m² | - |
| 1777950046 | 16.11° C | 64% | 1012.4 hPa | 0 mm | 0 m/s | 0 W/m² | - |
| 1777949164 | 16.11° C | 64% | 1012.3 hPa | 0 mm | 0 m/s | 0 W/m² | - |
* Rain since midnight (hover to see other rain measurements)
** Current wind speed in m/s (hover to see current wind gust speed)